Find Starlink 34809

NORAD ID: 65069 Int'l Des: 2025-165 Owner: SPXS Country: US Constellation: starlink operational
LEOCIRCULARRETROGRADESSO

实时位置

正在加载3D地球...

关于 Starlink 34809

正在加载描述...

即将过境

Passes for default location (London). Set your location on the main map for personalized predictions.

高度历史

Loading altitude history...

两行轨道根数

1 65069U 25165P 26106.93406291 .00004980 00000-0 34903-3 0 9997
2 65069 97.6036 184.9073 0000863 122.2536 237.8775 15.05657025 40547
Epoch: Apr 16, 2026 • Age: 14 hours

当前状态

高度 578.3 km
速度 7.57 km/s
星下点 -82.10°S, 132.75°W
发射日期 Jul 31, 2025
运行时间 0.7 years
类型 internet

技术详情

分类 Payload
质量 575.00 kg
干质量 530.00 kg
总质量 575.00 kg
长度 0.30 m
直径 4.10 m
跨度 29.00 m
形状 Box + pan
制造商 SPXS
平台类型 Starlink V2MO
阶段状态 In Orbit
所有者/国家 SPXS/US

Most Searched